Location: Unnamed
(45.1820°N, 67.3015°W)
Time: 23:23:20
(UTC-03:00)

ISS - Visible Passes

Search period start: 15 September 2024 00:00
Search period end: 25 September 2024 00:00
Orbit: 414 x 424 km, 51.6° (Epoch: 15 September)

Date Brightness Start Highest point End Pass type
(mag) Time Alt. Az. Time Alt. Az. Time Alt. Az.
15 Sep -2.7 21:06:18 10° W 21:09:31 44° NNW 21:11:37 19° NE visible
15 Sep -0.5 22:43:58 10° WNW 22:44:35 14° NW 22:44:35 14° NW visible
16 Sep -3.3 20:18:30 10° WSW 20:21:49 60° NNW 20:25:10 10° ENE visible
16 Sep -1.8 21:56:09 10° WNW 21:58:50 26° NNW 21:58:50 26° NNW visible
17 Sep -2.1 21:08:14 10° WNW 21:11:14 29° N 21:13:00 18° NE visible
17 Sep -0.3 22:45:39 10° NW 22:45:57 12° NW 22:45:57 12° NW visible
18 Sep -2.4 20:20:16 10° W 20:23:23 34° NNW 20:26:30 10° NE visible
18 Sep -1.6 21:57:51 10° NW 22:00:01 24° NNW 22:00:01 24° NNW visible
19 Sep -2.0 21:09:57 10° WNW 21:12:50 26° N 21:14:00 21° NNE visible
20 Sep -2.0 20:21:55 10° WNW 20:24:51 27° N 20:27:46 10° NE visible
20 Sep -1.5 21:59:08 10° NW 22:00:52 24° NNW 22:00:52 24° NNW visible
21 Sep -2.4 21:11:15 10° NW 21:14:14 29° N 21:14:45 27° NNE visible
22 Sep -2.1 20:23:15 10° NW 20:26:09 26° N 20:28:36 13° ENE visible
22 Sep -1.3 22:00:04 10° NW 22:01:31 23° NW 22:01:31 23° NW visible
23 Sep -3.0 21:12:08 10° NW 21:15:21 42° NNE 21:15:21 42° NNE visible
24 Sep -2.6 20:24:08 10° NW 20:27:13 33° NNE 20:29:09 18° ENE visible
24 Sep -1.1 22:00:51 10° WNW 22:02:04 20° WNW 22:02:04 20° WNW visible
